| time (UTC) | temp C | wind direction | speed KPH | gust KPH | rain 1hr cm | rain 24hr cm | rain mn cm | humidity % | barometer mb |
| 20260506235111 | 17 | 317 | 3.2 | 9.7 | 0.00 | 0.00 | 0.00 | 78 | 1015.7 |
| 20260506234111 | 17 | 339 | 6.4 | 16.1 | 0.00 | 0.00 | 0.00 | 78 | 1015.8 |
| 20260506233128 | 16 | 338 | 1.6 | 6.4 | 0.00 | 0.00 | 0.00 | 78 | 1015.7 |
| 20260506231111 | 17 | 340 | 3.2 | 11.3 | 0.00 | 0.00 | 0.00 | 78 | 1015.5 |
| 20260506230110 | 17 | 329 | 4.8 | 11.3 | 0.00 | 0.00 | 0.00 | 77 | 1015.7 |
| 20260506225111 | 17 | 347 | 4.8 | 14.5 | 0.00 | 0.00 | 0.00 | 77 | 1015.6 |
| 20260506224210 | 17 | 344 | 4.8 | 17.7 | 0.00 | 0.00 | 0.00 | 76 | 1015.4 |
| 20260506223210 | 17 | 338 | 1.6 | 8.0 | 0.00 | 0.00 | 0.00 | 76 | 1015.3 |
| 20260506222211 | 18 | 328 | 3.2 | 12.9 | 0.00 | 0.00 | 0.00 | 75 | 1015.1 |
| 20260506220312 | 18 | 331 | 4.8 | 16.1 | 0.00 | 0.00 | 0.00 | 74 | 1015.2 |
| 20260506215312 | 19 | 349 | 6.4 | 14.5 | 0.00 | 0.00 | 0.00 | 73 | 1015.2 |
| 20260506214312 | 19 | 357 | 4.8 | 11.3 | 0.00 | 0.00 | 0.00 | 73 | 1015.2 |
| 20260506213311 | 20 | 320 | 6.4 | 14.5 | 0.00 | 0.00 | 0.00 | 72 | 1015.1 |
| 20260506212311 | 21 | 285 | 3.2 | 17.7 | 0.00 | 0.00 | 0.00 | 71 | 1014.9 |
| 20260506210411 | 21 | 352 | 1.6 | 6.4 | 0.00 | 0.00 | 0.00 | 70 | 1014.8 |
| 20260506205410 | 22 | 325 | 4.8 | 14.5 | 0.00 | 0.00 | 0.00 | 71 | 1014.8 |
| 20260506204510 | 22 | 346 | 3.2 | 8.0 | 0.00 | 0.00 | 0.00 | 72 | 1014.8 |
| 20260506203511 | 22 | 345 | 6.4 | 14.5 | 0.00 | 0.00 | 0.00 | 72 | 1015.2 |
| 20260506202610 | 22 | 305 | 8.0 | 14.5 | 0.00 | 0.00 | 0.00 | 72 | 1015.1 |
| 20260506200711 | 22 | 314 | 4.8 | 9.7 | 0.00 | 0.00 | 0.00 | 74 | 1015.1 |
| 20260506195809 | 22 | 328 | 8.0 | 14.5 | 0.00 | 0.00 | 0.00 | 74 | 1014.9 |
| 20260506194810 | 22 | 322 | 3.2 | 6.4 | 0.00 | 0.00 | 0.00 | 74 | 1014.8 |
| 20260506192812 | 26 | 334 | 8.0 | 14.5 | 0.00 | 0.00 | 0.00 | 69 | 1014.5 |
| 20260506191811 | 26 | 47 | 1.6 | 4.8 | 0.00 | 0.00 | 0.00 | 70 | 1014.4 |
| 20260506190812 | 26 | 46 | 0.0 | 1.6 | 0.00 | 0.00 | 0.00 | 70 | 1014.5 |
| 20260506185812 | 27 | 262 | 0.0 | 4.8 | 0.00 | 0.00 | 0.00 | 69 | 1014.8 |
| 20260506184910 | 26 | 134 | 0.0 | 0.0 | 0.00 | 0.00 | 0.00 | 69 | 1014.8 |
| 20260506182910 | 26 | 4 | 0.0 | 0.0 | 0.00 | 0.00 | 0.00 | 71 | 1014.6 |
| 20260506180912 | 25 | 17 | 0.0 | 0.0 | 0.00 | 0.00 | 0.00 | 72 | 1014.7 |
| 20260506175911 | 24 | 58 | 0.0 | 6.4 | 0.00 | 0.00 | 0.00 | 74 | 1014.7 |
| 20260506174913 | 23 | 151 | 0.0 | 4.8 | 0.00 | 0.00 | 0.00 | 74 | 1014.7 |
| 20260506173911 | 22 | 169 | 0.0 | 0.0 | 0.00 | 0.00 | 0.00 | 76 | 1014.8 |
| 20260506172910 | 22 | 45 | 0.0 | 1.6 | 0.00 | 0.00 | 0.00 | 76 | 1014.8 |
| 20260506172010 | 21 | 356 | 1.6 | 6.4 | 0.00 | 0.00 | 0.00 | 77 | 1015.0 |
| 20260506171011 | 21 | 71 | 0.0 | 4.8 | 0.00 | 0.00 | 0.00 | 78 | 1014.9 |
| 20260506170011 | 20 | 84 | 0.0 | 6.4 | 0.00 | 0.00 | 0.00 | 79 | 1015.0 |
| 20260506165010 | 20 | 109 | 0.0 | 4.8 | 0.00 | 0.00 | 0.00 | 81 | 1015.4 |
| 20260506164108 | 18 | 6 | 3.2 | 8.0 | 0.00 | 0.00 | 0.00 | 82 | 1015.5 |
| 20260506163111 | 18 | 333 | 0.0 | 4.8 | 0.00 | 0.00 | 0.00 | 82 | 1015.7 |
| 20260506162110 | 19 | 349 | 8.0 | 12.9 | 0.00 | 0.00 | 0.00 | 81 | 1015.8 |
| 20260506161110 | 21 | 342 | 6.4 | 14.5 | 0.00 | 0.00 | 0.00 | 80 | 1016.1 |
| 20260506155111 | 25 | 349 | 0.0 | 1.6 | 0.00 | 0.00 | 0.00 | 81 | 1015.2 |
| 20260506153211 | 24 | 112 | 0.0 | 0.0 | 0.00 | 0.00 | 0.00 | 82 | 1015.0 |
| 20260506152212 | 25 | 67 | 0.0 | 0.0 | 0.00 | 0.00 | 0.00 | 82 | 1014.5 |
| 20260506151310 | 25 | 19 | 0.0 | 0.0 | 0.00 | 0.00 | 0.00 | 82 | 1014.5 |
| 20260506150410 | 24 | 157 | 0.0 | 0.0 | 0.00 | 0.00 | 0.00 | 82 | 1014.2 |
| 20260506145411 | 24 | 157 | 0.0 | 3.2 | 0.00 | 0.00 | 0.00 | 82 | 1013.9 |
| 20260506144426 | 24 | 135 | 1.6 | 4.8 | 0.00 | 0.00 | 0.00 | 82 | 1013.9 |
| 20260506143410 | 24 | 135 | 0.0 | 0.0 | 0.00 | 0.00 | 0.00 | 83 | 1013.8 |
| 20260506141410 | 23 | 136 | 0.0 | 3.2 | 0.00 | 0.00 | 0.00 | 83 | 1013.4 |
| 20260506135411 | 23 | 90 | 0.0 | 0.0 | 0.00 | 0.00 | 0.00 | 84 | 1013.4 |
| 20260506134510 | 23 | 157 | 0.0 | 0.0 | 0.00 | 0.00 | 0.00 | 84 | 1012.8 |
| 20260506133511 | 23 | 156 | 0.0 | 3.2 | 0.00 | 0.00 | 0.00 | 84 | 1013.1 |
| 20260506132510 | 23 | 135 | 0.0 | 0.0 | 0.00 | 0.00 | 0.00 | 84 | 1012.8 |
| 20260506131511 | 23 | 154 | 0.0 | 4.8 | 0.00 | 0.00 | 0.00 | 85 | 1012.9 |
| 20260506130511 | 23 | 202 | 0.0 | 0.0 | 0.00 | 0.00 | 0.00 | 85 | 1012.8 |
| 20260506125510 | 23 | 157 | 0.0 | 0.0 | 0.00 | 0.00 | 0.00 | 85 | 1012.7 |
| 20260506124511 | 23 | 97 | 0.0 | 0.0 | 0.00 | 0.00 | 0.00 | 85 | 1012.5 |
| 20260506123511 | 22 | 157 | 0.0 | 0.0 | 0.00 | 0.00 | 0.00 | 85 | 1012.6 |
| 20260506122511 | 23 | 157 | 0.0 | 0.0 | 0.00 | 0.00 | 0.00 | 85 | 1012.6 |
| 20260506120625 | 23 | 157 | 0.0 | 0.0 | 0.00 | 0.00 | 0.00 | 84 | 1012.7 |
| 20260506115610 | 23 | 157 | 0.0 | 0.0 | 0.00 | 0.00 | 0.00 | 84 | 1012.5 |
| 20260506114610 | 23 | 157 | 0.0 | 0.0 | 0.00 | 0.00 | 0.00 | 84 | 1012.4 |
| 20260506113708 | 23 | 157 | 0.0 | 0.0 | 0.00 | 0.00 | 0.00 | 84 | 1012.5 |
| 20260506112709 | 23 | 161 | 0.0 | 0.0 | 0.00 | 0.00 | 0.00 | 84 | 1012.5 |
| 20260506111710 | 23 | 135 | 0.0 | 0.0 | 0.00 | 0.00 | 0.00 | 84 | 1012.5 |
| 20260506110709 | 23 | 135 | 0.0 | 0.0 | 0.00 | 0.00 | 0.00 | 84 | 1012.4 |
| 20260506105730 | 23 | 135 | 0.0 | 0.0 | 0.00 | 0.00 | 0.00 | 84 | 1012.4 |
| 20260506104828 | 23 | 135 | 0.0 | 0.0 | 0.00 | 0.00 | 0.00 | 84 | 1012.2 |
| 20260506101930 | 23 | 162 | 1.6 | 6.4 | 0.00 | 0.00 | 0.00 | 84 | 1011.8 |
| 20260506100930 | 23 | 168 | 1.6 | 6.4 | 0.00 | 0.00 | 0.00 | 84 | 1011.8 |
| 20260506095931 | 23 | 168 | 4.8 | 8.0 | 0.00 | 0.00 | 0.00 | 84 | 1011.8 |
| 20260506095029 | 23 | 174 | 3.2 | 6.4 | 0.00 | 0.00 | 0.00 | 84 | 1011.6 |
| 20260506094031 | 23 | 159 | 1.6 | 4.8 | 0.00 | 0.00 | 0.00 | 84 | 1011.6 |
| 20260506093129 | 23 | 175 | 3.2 | 6.4 | 0.00 | 0.00 | 0.00 | 84 | 1011.4 |
| 20260506092131 | 23 | 162 | 3.2 | 8.0 | 0.00 | 0.00 | 0.00 | 84 | 1011.5 |
| 20260506091228 | 23 | 175 | 6.4 | 9.7 | 0.00 | 0.00 | 0.00 | 84 | 1011.3 |
| 20260506085328 | 23 | 165 | 4.8 | 6.4 | 0.00 | 0.00 | 0.00 | 84 | 1011.2 |
| 20260506084328 | 23 | 151 | 4.8 | 6.4 | 0.00 | 0.00 | 0.00 | 84 | 1011.2 |
| 20260506083330 | 23 | 168 | 6.4 | 11.3 | 0.00 | 0.00 | 0.00 | 84 | 1011.2 |
| 20260506081329 | 23 | 169 | 3.2 | 8.0 | 0.00 | 0.00 | 0.00 | 84 | 1011.3 |
| 20260506080330 | 23 | 172 | 3.2 | 6.4 | 0.00 | 0.00 | 0.00 | 84 | 1011.3 |
| 20260506073428 | 23 | 152 | 4.8 | 9.7 | 0.00 | 0.00 | 0.00 | 84 | 1011.7 |
| 20260506072428 | 23 | 159 | 1.6 | 6.4 | 0.00 | 0.00 | 0.00 | 84 | 1011.7 |
| 20260506071528 | 23 | 155 | 6.4 | 11.3 | 0.00 | 0.00 | 0.00 | 83 | 1011.9 |
| 20260506061545 | 23 | 177 | 6.4 | 12.9 | 0.00 | 0.00 | 0.00 | 83 | 1011.9 |
| 20260506060631 | 23 | 167 | 4.8 | 11.3 | 0.00 | 0.00 | 0.00 | 83 | 1011.8 |
| 20260506050830 | 23 | 143 | 3.2 | 4.8 | 0.00 | 0.00 | 0.00 | 82 | 1012.0 |
| 20260506045023 | 24 | 149 | 9.7 | 16.1 | 0.00 | 0.00 | 0.00 | 82 | 1011.9 |
| 20260506044025 | 24 | 149 | 6.4 | 14.5 | 0.00 | 0.00 | 0.00 | 82 | 1012.0 |
| 20260506043123 | 24 | 150 | 6.4 | 14.5 | 0.00 | 0.00 | 0.00 | 82 | 1012.0 |
| 20260506042124 | 24 | 155 | 6.4 | 12.9 | 0.00 | 0.00 | 0.00 | 82 | 1011.8 |
| 20260506041125 | 24 | 148 | 3.2 | 8.0 | 0.00 | 0.00 | 0.00 | 82 | 1011.8 |
| 20260506040125 | 24 | 146 | 3.2 | 8.0 | 0.00 | 0.00 | 0.00 | 82 | 1011.7 |
| 20260506035124 | 24 | 157 | 4.8 | 9.7 | 0.00 | 0.00 | 0.00 | 82 | 1011.4 |
| 20260506034224 | 24 | 149 | 4.8 | 11.3 | 0.00 | 0.00 | 0.00 | 82 | 1011.5 |
| 20260506032225 | 24 | 135 | 1.6 | 4.8 | 0.00 | 0.00 | 0.00 | 82 | 1011.2 |
| 20260506031224 | 24 | 159 | 3.2 | 4.8 | 0.00 | 0.00 | 0.00 | 82 | 1011.1 |
| 20260506030241 | 24 | 157 | 0.0 | 3.2 | 0.00 | 0.00 | 0.00 | 82 | 1010.8 |
| 20260506024224 | 24 | 136 | 1.6 | 6.4 | 0.00 | 0.00 | 0.00 | 81 | 1010.7 |
| 20260506023240 | 24 | 169 | 0.0 | 3.2 | 0.00 | 0.00 | 0.00 | 81 | 1010.6 |
| 20260506022225 | 24 | 149 | 3.2 | 8.0 | 0.00 | 0.00 | 0.00 | 81 | 1010.3 |
| 20260506020326 | 24 | 135 | 0.0 | 3.2 | 0.00 | 0.00 | 0.00 | 80 | 1010.0 |
| 20260506015424 | 24 | 157 | 0.0 | 1.6 | 0.00 | 0.00 | 0.00 | 80 | 1009.9 |
| 20260506014424 | 25 | 135 | 0.0 | 0.0 | 0.00 | 0.00 | 0.00 | 79 | 1009.8 |
| 20260506013523 | 25 | 135 | 0.0 | 0.0 | 0.00 | 0.00 | 0.00 | 79 | 1009.8 |
| 20260506012526 | 25 | 135 | 0.0 | 0.0 | 0.00 | 0.00 | 0.00 | 77 | 1009.7 |
| 20260506011526 | 26 | 135 | 0.0 | 0.0 | 0.00 | 0.00 | 0.00 | 77 | 1009.8 |
| 20260506010624 | 26 | 135 | 0.0 | 0.0 | 0.00 | 0.00 | 0.00 | 76 | 1009.8 |
| 20260506005625 | 26 | 135 | 0.0 | 0.0 | 0.00 | 0.00 | 0.00 | 76 | 1009.8 |
| 20260506004641 | 26 | 141 | 0.0 | 1.6 | 0.00 | 0.00 | 0.00 | 75 | 1009.8 |
| 20260506003725 | 27 | 158 | 1.6 | 3.2 | 0.00 | 0.00 | 0.00 | 74 | 1009.6 |
| 20260506002743 | 27 | 157 | 0.0 | 3.2 | 0.00 | 0.00 | 0.00 | 74 | 1009.6 |
| 20260506001824 | 27 | 154 | 0.0 | 3.2 | 0.00 | 0.00 | 0.00 | 73 | 1009.5 |